"Period start","avg(HW err(1)/warn(2) (#))","avg(Visibility (m))","avg(Weather code (#))","avg(Precip intensity (mm/h))","min(HW err(1)/warn(2) (#))","max(HW err(1)/warn(2) (#))","std(HW err(1)/warn(2) (#))","med(HW err(1)/warn(2) (#))","min(Visibility (m))","max(Visibility (m))","std(Visibility (m))","med(Visibility (m))","min(Weather code (#))","max(Weather code (#))","std(Weather code (#))","med(Weather code (#))","min(Precip intensity (mm/h))","max(Precip intensity (mm/h))","std(Precip intensity (mm/h))","med(Precip intensity (mm/h))"
2016-06-02 00:00:00,0,41455,0,0.00,0,0,0,0,24846,50000,7661,43659,0,0,0,0,0.00,0.00,0.00,0.00
2016-06-02 00:10:00,0,34996,0,0.00,0,0,0,0,26811,50000,7719,31160,0,0,0,0,0.00,0.00,0.00,0.00
2016-06-02 00:20:00,0,38635,0,0.00,0,0,0,0,30527,49881,6143,36552,0,0,0,0,0.00,0.00,0.00,0.00
2016-06-02 00:30:00,0,40589,0,0.00,0,0,0,0,27881,50000,8551,44077,0,0,0,0,0.00,0.00,0.00,0.00
2016-06-02 00:40:00,0,43899,0,0.00,0,0,0,0,21592,50000,10691,50000,0,0,0,0,0.00,0.00,0.00,0.00
2016-06-02 00:50:00,1,44736,0,0.00,0,2,1,2,36039,50000,5584,46154,0,0,0,0,0.00,0.00,0.00,0.00
2016-06-02 01:00:00,1,28452,0,0.00,0,2,1,2,16548,36897,7503,28580,0,0,0,0,0.00,0.00,0.00,0.00
2016-06-02 01:10:00,0,36488,0,0.00,0,0,0,0,24604,46404,7795,36596,0,0,0,0,0.00,0.00,0.00,0.00
2016-06-02 01:20:00,0,40031,0,0.00,0,0,0,0,16445,50000,9021,43070,0,0,0,0,0.00,0.00,0.00,0.00
2016-06-02 01:30:00,0,37938,0,0.00,0,0,0,0,21607,50000,9515,41314,0,0,0,0,0.00,0.00,0.00,0.00
2016-06-02 01:40:00,0,36774,0,0.00,0,0,0,0,23274,50000,8297,38290,0,0,0,0,0.00,0.00,0.00,0.00
2016-06-02 01:50:00,0,44345,0,0.00,0,0,0,0,31454,50000,6723,47795,0,0,0,0,0.00,0.00,0.00,0.00
2016-06-02 02:00:00,0,40740,0,0.00,0,0,0,0,29460,50000,6146,40548,0,0,0,0,0.00,0.00,0.00,0.00
2016-06-02 02:10:00,0,44066,0,0.00,0,0,0,0,38117,50000,3634,44481,0,0,0,0,0.00,0.00,0.00,0.00
2016-06-02 02:20:00,0,42222,0,0.00,0,0,0,0,31140,50000,6984,43940,0,0,0,0,0.00,0.00,0.00,0.00
2016-06-02 02:30:00,0,41772,0,0.00,0,0,0,0,30872,48849,5868,42572,0,0,0,0,0.00,0.00,0.00,0.00
2016-06-02 02:40:00,0,38465,0,0.00,0,0,0,0,22330,50000,8545,37337,0,0,0,0,0.00,0.00,0.00,0.00
2016-06-02 02:50:00,0,36955,0,0.00,0,0,0,0,23922,50000,8733,39145,0,0,0,0,0.00,0.00,0.00,0.00
2016-06-02 03:00:00,0,34158,0,0.00,0,0,0,0,28786,42423,4685,32638,0,0,0,0,0.00,0.00,0.00,0.00
2016-06-02 03:10:00,0,36537,0,0.00,0,0,0,0,24315,50000,8263,35637,0,0,0,0,0.00,0.00,0.00,0.00
2016-06-02 03:20:00,0,37819,0,0.00,0,0,0,0,31327,44386,3893,37623,0,0,0,0,0.00,0.00,0.00,0.00
2016-06-02 03:30:00,0,45141,0,0.00,0,0,0,0,38374,50000,4768,46152,0,0,0,0,0.00,0.00,0.00,0.00
2016-06-02 03:40:00,0,37603,0,0.00,0,0,0,0,32286,46658,5413,36118,0,0,0,0,0.00,0.00,0.00,0.00
2016-06-02 03:50:00,0,39636,0,0.00,0,0,0,0,29352,50000,6488,38964,0,0,0,0,0.00,0.00,0.00,0.00
2016-06-02 04:00:00,0,44910,0,0.00,0,0,0,0,33869,50000,5693,47699,0,0,0,0,0.00,0.00,0.00,0.00
2016-06-02 04:10:00,0,40931,0,0.00,0,0,0,0,33000,50000,5841,39488,0,0,0,0,0.00,0.00,0.00,0.00
2016-06-02 04:20:00,0,45275,0,0.00,0,0,0,0,39236,50000,3908,45038,0,0,0,0,0.00,0.00,0.00,0.00
2016-06-02 04:30:00,0,44463,0,0.00,0,0,0,0,37000,50000,4582,45090,0,0,0,0,0.00,0.00,0.00,0.00
2016-06-02 04:40:00,0,43808,0,0.00,0,0,0,0,36456,50000,4574,44164,0,0,0,0,0.00,0.00,0.00,0.00
2016-06-02 04:50:00,0,44036,0,0.00,0,0,0,0,34510,50000,5170,44264,0,0,0,0,0.00,0.00,0.00,0.00
2016-06-02 05:00:00,0,44625,0,0.00,0,0,0,0,33179,50000,6204,47638,0,0,0,0,0.00,0.00,0.00,0.00
2016-06-02 05:10:00,0,45134,0,0.00,0,0,0,0,34550,50000,5402,46840,0,0,0,0,0.00,0.00,0.00,0.00
2016-06-02 05:20:00,0,47376,0,0.00,0,0,0,0,41388,50000,3662,49710,0,0,0,0,0.00,0.00,0.00,0.00
2016-06-02 05:30:00,0,44176,0,0.00,0,0,0,0,32373,50000,7021,48276,0,0,0,0,0.00,0.00,0.00,0.00
2016-06-02 05:40:00,0,45399,0,0.00,0,0,0,0,36002,50000,4448,44707,0,0,0,0,0.00,0.00,0.00,0.00
2016-06-02 05:50:00,0,42271,0,0.00,0,0,0,0,32688,49653,4591,41642,0,0,0,0,0.00,0.00,0.00,0.00
2016-06-02 06:00:00,0,45021,0,0.00,0,0,0,0,33621,50000,5802,47740,0,0,0,0,0.00,0.00,0.00,0.00
2016-06-02 06:10:00,0,46596,0,0.00,0,0,0,0,41605,50000,3515,47290,0,0,0,0,0.00,0.00,0.00,0.00
2016-06-02 06:20:00,0,49042,0,0.00,0,0,0,0,43718,50000,2028,50000,0,0,0,0,0.00,0.00,0.00,0.00
2016-06-02 06:30:00,0,45145,0,0.00,0,0,0,0,38660,49139,3370,46072,0,0,0,0,0.00,0.00,0.00,0.00
2016-06-02 06:40:00,0,46362,0,0.00,0,0,0,0,38769,50000,4232,48124,0,0,0,0,0.00,0.00,0.00,0.00
2016-06-02 06:50:00,0,44769,0,0.00,0,0,0,0,36418,50000,4603,45537,0,0,0,0,0.00,0.00,0.00,0.00
2016-06-02 07:00:00,0,48832,0,0.00,0,0,0,0,41806,50000,2517,50000,0,0,0,0,0.00,0.00,0.00,0.00
2016-06-02 07:10:00,0,44564,0,0.00,0,0,0,0,33343,50000,6150,46941,0,0,0,0,0.00,0.00,0.00,0.00
2016-06-02 07:20:00,0,41559,0,0.00,0,0,0,0,28703,50000,7698,44454,0,0,0,0,0.00,0.00,0.00,0.00
2016-06-02 07:30:00,0,47902,0,0.00,0,0,0,0,38443,50000,3694,50000,0,0,0,0,0.00,0.00,0.00,0.00
2016-06-02 07:40:00,0,45425,0,0.00,0,0,0,0,37118,50000,4744,46818,0,0,0,0,0.00,0.00,0.00,0.00
2016-06-02 07:50:00,0,47352,0,0.00,0,0,0,0,42989,50000,2940,48981,0,0,0,0,0.00,0.00,0.00,0.00
2016-06-02 08:00:00,0,46527,0,0.00,0,0,0,0,39892,50000,3855,48704,0,0,0,0,0.00,0.00,0.00,0.00
2016-06-02 08:10:00,0,48996,0,0.00,0,0,0,0,41402,50000,2548,50000,0,0,0,0,0.00,0.00,0.00,0.00
2016-06-02 08:20:00,0,48482,0,0.00,0,0,0,0,42740,50000,2725,50000,0,0,0,0,0.00,0.00,0.00,0.00
2016-06-02 08:30:00,0,48610,0,0.00,0,0,0,0,44750,50000,1853,50000,0,0,0,0,0.00,0.00,0.00,0.00
2016-06-02 08:40:00,0,47787,0,0.00,0,0,0,0,41556,50000,2896,49887,0,0,0,0,0.00,0.00,0.00,0.00
2016-06-02 08:50:00,0,46836,0,0.00,0,0,0,0,35862,50000,4671,50000,0,0,0,0,0.00,0.00,0.00,0.00
2016-06-02 09:00:00,0,48516,0,0.00,0,0,0,0,43256,50000,2317,50000,0,0,0,0,0.00,0.00,0.00,0.00
2016-06-02 09:10:00,0,48821,0,0.00,0,0,0,0,45867,50000,1295,49014,0,0,0,0,0.00,0.00,0.00,0.00
2016-06-02 09:20:00,0,45184,0,0.00,0,0,0,0,41740,48935,2719,46131,0,0,0,0,0.00,0.00,0.00,0.00
2016-06-02 09:30:00,0,45332,0,0.00,0,0,0,0,39532,50000,4349,47144,0,0,0,0,0.00,0.00,0.00,0.00
2016-06-02 09:40:00,0,49410,0,0.00,0,0,0,0,48014,50000,696,49826,0,0,0,0,0.00,0.00,0.00,0.00
2016-06-02 09:50:00,0,45596,0,0.00,0,0,0,0,38558,50000,4129,45402,0,0,0,0,0.00,0.00,0.00,0.00
2016-06-02 10:00:00,0,46560,0,0.00,0,0,0,0,37902,50000,3895,47818,0,0,0,0,0.00,0.00,0.00,0.00
2016-06-02 10:10:00,0,45356,0,0.00,0,0,0,0,32827,50000,5380,46396,0,0,0,0,0.00,0.00,0.00,0.00
2016-06-02 10:20:00,0,46130,0,0.00,0,0,0,0,36007,50000,3939,47136,0,0,0,0,0.00,0.00,0.00,0.00
2016-06-02 10:30:00,0,48167,0,0.00,0,0,0,0,44299,50000,1839,48268,0,0,0,0,0.00,0.00,0.00,0.00
2016-06-02 10:40:00,0,46813,0,0.00,0,0,0,0,39538,50000,3876,48888,0,0,0,0,0.00,0.00,0.00,0.00
2016-06-02 10:50:00,0,47450,0,0.00,0,0,0,0,41273,50000,3068,49358,0,0,0,0,0.00,0.00,0.00,0.00
2016-06-02 11:00:00,0,48048,0,0.00,0,0,0,0,36854,50000,3902,49785,0,0,0,0,0.00,0.00,0.00,0.00
2016-06-02 11:10:00,0,44190,0,0.00,0,0,0,0,35805,50000,4193,44156,0,0,0,0,0.00,0.00,0.00,0.00
2016-06-02 11:20:00,0,48479,0,0.00,0,0,0,0,41427,50000,2508,49664,0,0,0,0,0.00,0.00,0.00,0.00
2016-06-02 11:30:00,0,45721,0,0.00,0,0,0,0,34258,50000,5273,48590,0,0,0,0,0.00,0.00,0.00,0.00
2016-06-02 11:40:00,0,45024,0,0.00,0,0,0,0,37841,50000,3754,45208,0,0,0,0,0.00,0.00,0.00,0.00
2016-06-02 11:50:00,0,42187,0,0.00,0,0,0,0,34349,50000,4803,40894,0,0,0,0,0.00,0.00,0.00,0.00
2016-06-02 12:00:00,0,49060,0,0.00,0,0,0,0,44343,50000,1887,50000,0,0,0,0,0.00,0.00,0.00,0.00
2016-06-02 12:10:00,0,49579,0,0.00,0,0,0,0,47368,50000,852,50000,0,0,0,0,0.00,0.00,0.00,0.00
2016-06-02 12:20:00,0,49370,0,0.00,0,0,0,0,47510,50000,975,50000,0,0,0,0,0.00,0.00,0.00,0.00
2016-06-02 12:30:00,0,47116,0,0.00,0,0,0,0,39842,50000,3425,48528,0,0,0,0,0.00,0.00,0.00,0.00
2016-06-02 12:40:00,0,48879,0,0.00,0,0,0,0,45780,50000,1514,49855,0,0,0,0,0.00,0.00,0.00,0.00
2016-06-02 12:50:00,0,50000,0,0.00,0,0,0,0,50000,50000,0,50000,0,0,0,0,0.00,0.00,0.00,0.00
2016-06-02 13:00:00,0,49393,0,0.00,0,0,0,0,45230,50000,1441,50000,0,0,0,0,0.00,0.00,0.00,0.00
2016-06-02 13:10:00,0,50000,0,0.00,0,0,0,0,50000,50000,0,50000,0,0,0,0,0.00,0.00,0.00,0.00
2016-06-02 13:20:00,0,49971,0,0.00,0,0,0,0,49789,50000,65,50000,0,0,0,0,0.00,0.00,0.00,0.00
2016-06-02 13:30:00,0,50000,0,0.00,0,0,0,0,50000,50000,0,50000,0,0,0,0,0.00,0.00,0.00,0.00
2016-06-02 13:40:00,0,49866,0,0.00,0,0,0,0,49119,50000,285,50000,0,0,0,0,0.00,0.00,0.00,0.00
2016-06-02 13:50:00,0,50000,0,0.00,0,0,0,0,50000,50000,0,50000,0,0,0,0,0.00,0.00,0.00,0.00
2016-06-02 14:00:00,0,49780,0,0.00,0,0,0,0,48442,50000,485,50000,0,0,0,0,0.00,0.00,0.00,0.00
2016-06-02 14:10:00,0,50000,0,0.00,0,0,0,0,50000,50000,0,50000,0,0,0,0,0.00,0.00,0.00,0.00
2016-06-02 14:20:00,0,50000,0,0.00,0,0,0,0,50000,50000,0,50000,0,0,0,0,0.00,0.00,0.00,0.00
2016-06-02 14:30:00,0,49990,0,0.00,0,0,0,0,49898,50000,31,50000,0,0,0,0,0.00,0.00,0.00,0.00
2016-06-02 14:40:00,0,50000,0,0.00,0,0,0,0,50000,50000,0,50000,0,0,0,0,0.00,0.00,0.00,0.00
2016-06-02 14:50:00,0,49472,0,0.00,0,0,0,0,46814,50000,1070,50000,0,0,0,0,0.00,0.00,0.00,0.00
2016-06-02 15:00:00,0,50000,0,0.00,0,0,0,0,50000,50000,0,50000,0,0,0,0,0.00,0.00,0.00,0.00
2016-06-02 15:10:00,0,49966,0,0.00,0,0,0,0,49661,50000,102,50000,0,0,0,0,0.00,0.00,0.00,0.00
2016-06-02 15:20:00,0,50000,0,0.00,0,0,0,0,50000,50000,0,50000,0,0,0,0,0.00,0.00,0.00,0.00
2016-06-02 15:30:00,0,50000,0,0.00,0,0,0,0,50000,50000,0,50000,0,0,0,0,0.00,0.00,0.00,0.00
2016-06-02 15:40:00,0,49991,0,0.00,0,0,0,0,49906,50000,28,50000,0,0,0,0,0.00,0.00,0.00,0.00
2016-06-02 15:50:00,0,48982,0,0.00,0,0,0,0,43146,50000,2059,50000,0,0,0,0,0.00,0.00,0.00,0.00
2016-06-02 16:00:00,0,49518,0,0.00,0,0,0,0,45347,50000,1391,50000,0,0,0,0,0.00,0.00,0.00,0.00
2016-06-02 16:10:00,0,50000,0,0.00,0,0,0,0,50000,50000,0,50000,0,0,0,0,0.00,0.00,0.00,0.00
2016-06-02 16:20:00,0,49943,0,0.00,0,0,0,0,49433,50000,170,50000,0,0,0,0,0.00,0.00,0.00,0.00
2016-06-02 16:30:00,0,50000,0,0.00,0,0,0,0,50000,50000,0,50000,0,0,0,0,0.00,0.00,0.00,0.00
2016-06-02 16:40:00,0,49844,0,0.00,0,0,0,0,48435,50000,470,50000,0,0,0,0,0.00,0.00,0.00,0.00
2016-06-02 16:50:00,0,49792,0,0.00,0,0,0,0,47924,50000,623,50000,0,0,0,0,0.00,0.00,0.00,0.00
2016-06-02 17:00:00,0,49884,0,0.00,0,0,0,0,48838,50000,349,50000,0,0,0,0,0.00,0.00,0.00,0.00
2016-06-02 17:10:00,0,50000,0,0.00,0,0,0,0,50000,50000,0,50000,0,0,0,0,0.00,0.00,0.00,0.00
2016-06-02 17:20:00,0,50000,0,0.00,0,0,0,0,50000,50000,0,50000,0,0,0,0,0.00,0.00,0.00,0.00
2016-06-02 17:30:00,0,49918,0,0.00,0,0,0,0,49178,50000,247,50000,0,0,0,0,0.00,0.00,0.00,0.00
2016-06-02 17:40:00,0,50000,0,0.00,0,0,0,0,50000,50000,0,50000,0,0,0,0,0.00,0.00,0.00,0.00
2016-06-02 17:50:00,0,50000,0,0.00,0,0,0,0,50000,50000,0,50000,0,0,0,0,0.00,0.00,0.00,0.00
2016-06-02 18:00:00,0,50000,0,0.00,0,0,0,0,50000,50000,0,50000,0,0,0,0,0.00,0.00,0.00,0.00
2016-06-02 18:10:00,0,49701,0,0.00,0,0,0,0,47007,50000,898,50000,0,0,0,0,0.00,0.00,0.00,0.00
2016-06-02 18:20:00,0,50000,0,0.00,0,0,0,0,50000,50000,0,50000,0,0,0,0,0.00,0.00,0.00,0.00
2016-06-02 18:30:00,0,50000,0,0.00,0,0,0,0,50000,50000,0,50000,0,0,0,0,0.00,0.00,0.00,0.00
2016-06-02 18:40:00,0,49863,0,0.00,0,0,0,0,49250,50000,275,50000,0,0,0,0,0.00,0.00,0.00,0.00
2016-06-02 18:50:00,0,50000,0,0.00,0,0,0,0,50000,50000,0,50000,0,0,0,0,0.00,0.00,0.00,0.00
2016-06-02 19:00:00,0,50000,0,0.00,0,0,0,0,50000,50000,0,50000,0,0,0,0,0.00,0.00,0.00,0.00
2016-06-02 19:10:00,0,49854,0,0.00,0,0,0,0,49094,50000,302,50000,0,0,0,0,0.00,0.00,0.00,0.00
2016-06-02 19:20:00,0,49966,0,0.00,0,0,0,0,49660,50000,102,50000,0,0,0,0,0.00,0.00,0.00,0.00
2016-06-02 19:30:00,2,50000,0,0.00,0,2,1,2,50000,50000,0,50000,0,0,0,0,0.00,0.00,0.00,0.00
2016-06-02 19:40:00,2,49980,0,0.00,2,2,0,2,49795,50000,62,50000,0,0,0,0,0.00,0.00,0.00,0.00
2016-06-02 19:50:00,2,49966,0,0.00,2,2,0,2,49661,50000,102,50000,0,0,0,0,0.00,0.00,0.00,0.00
2016-06-02 20:00:00,2,49281,0,0.00,2,2,0,2,44869,50000,1594,50000,0,0,0,0,0.00,0.00,0.00,0.00
2016-06-02 20:10:00,2,49151,0,0.00,2,2,0,2,47211,50000,1103,50000,0,0,0,0,0.00,0.00,0.00,0.00
2016-06-02 20:20:00,2,49267,0,0.00,2,2,0,2,45461,50000,1517,50000,0,0,0,0,0.00,0.00,0.00,0.00
2016-06-02 20:30:00,2,50000,0,0.00,2,2,0,2,50000,50000,0,50000,0,0,0,0,0.00,0.00,0.00,0.00
2016-06-02 20:40:00,2,49242,0,0.00,2,2,0,2,46665,50000,1243,50000,0,0,0,0,0.00,0.00,0.00,0.00
2016-06-02 20:50:00,2,48189,0,0.00,2,2,0,2,44242,50000,1863,48712,0,0,0,0,0.00,0.00,0.00,0.00
2016-06-02 21:00:00,2,47724,0,0.00,2,2,0,2,39382,50000,3436,49892,0,0,0,0,0.00,0.00,0.00,0.00
2016-06-02 21:10:00,2,49675,0,0.00,2,2,0,2,46748,50000,976,50000,0,0,0,0,0.00,0.00,0.00,0.00
2016-06-02 21:20:00,2,47230,0,0.00,2,2,0,2,35782,50000,4199,48930,0,0,0,0,0.00,0.00,0.00,0.00
2016-06-02 21:30:00,2,49144,0,0.00,2,2,0,2,44755,50000,1594,50000,0,0,0,0,0.00,0.00,0.00,0.00
2016-06-02 21:40:00,2,49390,0,0.00,2,2,0,2,46482,50000,1128,50000,0,0,0,0,0.00,0.00,0.00,0.00
2016-06-02 21:50:00,2,42482,0,0.00,2,2,0,2,33240,50000,5622,43611,0,0,0,0,0.00,0.00,0.00,0.00
2016-06-02 22:00:00,2,49460,0,0.00,2,2,0,2,46812,50000,1102,50000,0,0,0,0,0.00,0.00,0.00,0.00
2016-06-02 22:10:00,2,43253,0,0.00,2,2,0,2,32469,50000,6464,45447,0,0,0,0,0.00,0.00,0.00,0.00
2016-06-02 22:20:00,2,46672,0,0.00,2,2,0,2,37604,50000,4295,49548,0,0,0,0,0.00,0.00,0.00,0.00
2016-06-02 22:30:00,2,47963,0,0.00,2,2,0,2,34407,50000,4738,50000,0,0,0,0,0.00,0.00,0.00,0.00
2016-06-02 22:40:00,2,42396,0,0.00,2,2,0,2,30972,50000,6456,43044,0,0,0,0,0.00,0.00,0.00,0.00
2016-06-02 22:50:00,2,42470,0,0.00,2,2,0,2,25326,50000,8110,45792,0,0,0,0,0.00,0.00,0.00,0.00
2016-06-02 23:00:00,2,48057,0,0.00,2,2,0,2,38950,50000,3657,50000,0,0,0,0,0.00,0.00,0.00,0.00
2016-06-02 23:10:00,2,40958,0,0.00,2,2,0,2,20845,50000,10326,46166,0,0,0,0,0.00,0.00,0.00,0.00
2016-06-02 23:20:00,2,42903,0,0.00,2,2,0,2,30926,50000,6612,43828,0,0,0,0,0.00,0.00,0.00,0.00
2016-06-02 23:30:00,2,38981,0,0.00,2,2,0,2,30470,48723,6800,39042,0,0,0,0,0.00,0.00,0.00,0.00
2016-06-02 23:40:00,2,40823,0,0.00,2,2,0,2,20486,50000,10125,44968,0,0,0,0,0.00,0.00,0.00,0.00
2016-06-02 23:50:00,2,39692,0,0.00,2,2,0,2,23974,50000,8766,38381,0,0,0,0,0.00,0.00,0.00,0.00
